Tracking 28790 objects as of 18-Apr-2024
HD Live streaming from Space Station
objects crossing your sky now

FENGYUN 1C DEB

Track FENGYUN 1C DEB now!
10-day predictions


NORAD ID: 29917
Int'l Code: 1999-025HP
Perigee: 846.2 km
Apogee: 1,182.2 km
Inclination: 98.9 °
Period: 105.3 minutes
Semi major axis: 7385 km
RCS: 0.023 m2 (small)
Launch date: May 10, 1999
Source: People's Republic of China (PRC)
Launch site: Taiyaun Space Center, China (TSC)

Note: This is SATELLITE DEBRIS
Your satellite tracking list
Your tracking list is empty




NASA's NSSDC Master Catalog

Two Line Element Set (TLE):
1 29917U 99025HP  24107.70353845  .00002002  00000-0  20120-2 0  9993
2 29917  98.9206   8.7733 0227510 279.0445 137.6620 13.67914782858509
Source of the keplerian elements: AFSPC